Location: Riedlingen
(48.1569°N, 9.4757°E)
Time: 03:23:07
(UTC+02:00)

Envisat - Visible Passes

Search period start: 21 May 2018 00:00
Search period end: 31 May 2018 00:00
Orbit: 764 x 766 km, 98.2° (Epoch: 20 May)

Date Brightness Start Highest point End Pass type
(mag) Time Alt. Az. Time Alt. Az. Time Alt. Az.
22 May 5.6 21:59:11 10° SW 22:02:29 17° W 22:05:48 10° NW visible
25 May 5.4 21:47:24 10° SW 21:51:13 21° W 21:55:03 10° NW visible
27 May 5.8 22:14:58 10° WSW 22:17:07 13° W 22:19:17 10° WNW visible
30 May 5.6 22:02:47 10° SW 22:05:49 16° W 22:08:52 10° NW visible
